Weather History for Stevens Point, WI

Change the Weather History Date:

Thursday, January 2, 2014

  Actual Average Record
Temperature  
Mean Temperature -6 °F -  
Max Temperature 6 °F 24 °F 44 °F (1998)
Min Temperature -17 °F 6 °F -23 °F (1979)
Degree Days  
Heating Degree Days 70    
Moisture  
Dew Point -10 °F    
Average Humidity 66    
Maximum Humidity 83    
Minimum Humidity 48    
Precipitation  
Precipitation 0.00 in - - ()
Sea Level Pressure  
Sea Level Pressure 30.33 in    
Wind  
Wind Speed 6 mph (North)    
Max Wind Speed 13 mph    
Max Gust Speed 16 mph    
Visibility 9 miles    
Events Snow    
Averages and records for this station are not official NWS values.
T = Trace of Precipitation, MM = Missing Value Source: NWS Daily Summary

Daily Weather History Graph

Daily Weather History Graph

Search for Another Location

Airport:

Trip Planner

Search our weather history database for the weather conditions in past years. The results will help you decide how hot, cold, wet, or windy it might be!

Date:

Astronomy

Jan. 02, 2014 Rise Set
Actual Time 7:34 AM CST 4:29 PM CST
Civil Twilight 7:01 AM CST 5:03 PM CST
Nautical Twilight 6:24 AM CST 5:39 PM CST
Astronomical Twilight 5:49 AM CST 6:15 PM CST
Moon 8:11 AM CST (1/2) 6:32 PM CST (1/2)
Length of Visible Light 10h 01m
Length of Day
8h 55m
Waxing Crescent, 3% of the Moon is Illuminated
Jan 2
Waxing Crescent
Jan 7
First Quarter
Jan 15
Full
Jan 23
Last Quarter
Jan 30
New

Hourly Weather History & Observations

Time (CST) Temp. Windchill Dew Point Humidity Pressure Visibility Wind Dir Wind Speed Gust Speed Precip Events Conditions
12:15 AM 3.0 °F -8.0 °F -7.6 °F 61% 30.31 in 10.0 mi North 5.8 mph - N/A   Overcast
12:35 AM 2.8 °F -11.7 °F -7.6 °F 62% 30.30 in 10.0 mi North 9.2 mph - N/A   Overcast
12:55 AM 2.5 °F -12.2 °F -7.6 °F 63% 30.30 in 10.0 mi NNE 9.2 mph - N/A   Overcast
1:15 AM 2.1 °F -11.6 °F -7.8 °F 63% 30.30 in 10.0 mi North 8.1 mph - N/A   Overcast
1:35 AM 1.8 °F -12.0 °F -8.0 °F 64% 30.30 in 10.0 mi NNE 8.1 mph - N/A   Overcast
1:55 AM 1.4 °F -11.3 °F -8.0 °F 65% 30.30 in 10.0 mi North 6.9 mph - N/A   Overcast
2:15 AM 1.4 °F -12.5 °F -8.0 °F 65% 30.30 in 10.0 mi North 8.1 mph - N/A   Overcast
2:35 AM 1.4 °F -12.5 °F -7.6 °F 66% 30.30 in 10.0 mi North 8.1 mph - N/A   Overcast
2:55 AM 1.4 °F -11.3 °F -6.9 °F 68% 30.29 in 10.0 mi North 6.9 mph - N/A   Overcast
3:15 AM 1.4 °F -11.3 °F -6.3 °F 70% 30.29 in 10.0 mi North 6.9 mph - N/A   Overcast
3:35 AM 1.2 °F -12.7 °F -6.0 °F 72% 30.29 in 7.0 mi NNE 8.1 mph - N/A   Overcast
3:55 AM 1.2 °F -8.5 °F -5.8 °F 72% 30.29 in 7.0 mi North 4.6 mph - N/A Snow Light Snow
4:15 AM 1.0 °F -10.3 °F -5.8 °F 73% 30.29 in 10.0 mi North 5.8 mph - N/A   Overcast
4:35 AM 0.5 °F -11.0 °F -5.8 °F 75% 30.29 in 10.0 mi North 5.8 mph - N/A   Overcast
4:55 AM 0.5 °F -9.3 °F -5.8 °F 75% 30.29 in 10.0 mi North 4.6 mph - N/A   Overcast
5:15 AM 0.3 °F -9.5 °F -6.0 °F 75% 30.30 in 7.0 mi North 4.6 mph - N/A   Overcast
5:35 AM 0.1 °F -14.0 °F -6.7 °F 73% 30.30 in 10.0 mi NNE 8.1 mph - N/A   Overcast
5:55 AM -0.2 °F -13.2 °F -6.9 °F 73% 30.31 in 7.0 mi NNE 6.9 mph - N/A Snow Light Snow
6:15 AM -0.4 °F -12.0 °F -6.7 °F 75% 30.31 in 5.0 mi NNE 5.8 mph - N/A Snow Light Snow
6:35 AM -0.4 °F -13.4 °F -6.3 °F 76% 30.31 in 5.0 mi North 6.9 mph - N/A   Overcast
6:55 AM -0.8 °F -13.9 °F -6.7 °F 76% 30.31 in 7.0 mi NNE 6.9 mph - N/A   Overcast
7:15 AM -0.8 °F -13.9 °F -7.1 °F 75% 30.31 in 7.0 mi NNE 6.9 mph - N/A   Overcast
7:35 AM -0.9 °F -15.3 °F -7.1 °F 75% 30.32 in 7.0 mi North 8.1 mph - N/A   Overcast
7:55 AM -0.9 °F -14.1 °F -7.6 °F 73% 30.32 in 5.0 mi North 6.9 mph - N/A   Haze
8:15 AM -1.1 °F -12.9 °F -8.0 °F 73% 30.33 in 5.0 mi North 5.8 mph - N/A   Haze
8:35 AM -0.8 °F -15.1 °F -7.8 °F 72% 30.33 in 10.0 mi North 8.1 mph - N/A   Overcast
8:55 AM -0.8 °F -17.2 °F -8.0 °F 72% 30.34 in 10.0 mi North 10.4 mph - N/A   Overcast
9:15 AM -0.6 °F -12.2 °F -8.5 °F 69% 30.34 in 10.0 mi NNE 5.8 mph - N/A   Overcast
9:35 AM 0.5 °F -12.3 °F -8.5 °F 66% 30.34 in 10.0 mi NNE 6.9 mph - N/A   Mostly Cloudy
9:55 AM 1.4 °F -13.5 °F -8.9 °F 62% 30.35 in 10.0 mi North 9.2 mph - N/A   Clear
10:15 AM 1.9 °F -15.5 °F -9.4 °F 59% 30.35 in 10.0 mi North 12.7 mph 16.1 mph N/A   Clear
10:35 AM 3.0 °F -12.5 °F -9.4 °F 56% 30.35 in 10.0 mi NNE 10.4 mph - N/A   Scattered Clouds
10:55 AM 3.0 °F -11.5 °F -9.2 °F 57% 30.34 in 10.0 mi NNE 9.2 mph - N/A   Scattered Clouds
11:15 AM 3.6 °F -11.8 °F -9.0 °F 56% 30.33 in 10.0 mi NNE 10.4 mph - N/A   Clear
11:35 AM 3.7 °F -9.6 °F -9.4 °F 55% 30.33 in 10.0 mi NNE 8.1 mph - N/A   Clear
11:55 AM 3.9 °F -10.4 °F -9.6 °F 54% 30.32 in 10.0 mi NNE 9.2 mph - N/A   Clear
12:15 PM 4.1 °F -9.2 °F -9.4 °F 54% 30.32 in 10.0 mi North 8.1 mph - N/A   Clear
12:35 PM 4.3 °F -9.0 °F -9.6 °F 53% 30.31 in 10.0 mi North 8.1 mph - N/A   Clear
12:55 PM 4.6 °F -8.5 °F -10.1 °F 51% 30.31 in 10.0 mi NNE 8.1 mph - N/A   Clear
1:15 PM 5.4 °F -7.6 °F -9.8 °F 50% 30.31 in 10.0 mi NNE 8.1 mph - N/A   Clear
1:35 PM 5.9 °F -7.0 °F -9.6 °F 49% 30.31 in 10.0 mi NNW 8.1 mph - N/A   Clear
1:55 PM 5.9 °F -8.0 °F -9.9 °F 48% 30.31 in 10.0 mi North 9.2 mph - N/A   Clear
2:15 PM 6.4 °F -6.3 °F -9.6 °F 48% 30.32 in 10.0 mi North 8.1 mph - N/A   Clear
2:35 PM 6.6 °F -7.1 °F -9.4 °F 48% 30.32 in 10.0 mi NNW 9.2 mph - N/A   Clear
2:55 PM 6.8 °F -5.9 °F -9.2 °F 48% 30.33 in 10.0 mi North 8.1 mph - N/A   Clear
3:15 PM 6.6 °F -6.1 °F -8.5 °F 50% 30.33 in 10.0 mi NNW 8.1 mph - N/A   Clear
3:35 PM 6.6 °F -8.0 °F -8.5 °F 50% 30.33 in 10.0 mi NW 10.4 mph - N/A   Clear
3:55 PM 6.4 °F -5.2 °F -8.5 °F 50% 30.34 in 10.0 mi NNW 6.9 mph - N/A   Clear
4:15 PM 6.1 °F -5.6 °F -8.5 °F 51% 30.34 in 10.0 mi NNW 6.9 mph - N/A   Clear
4:35 PM 5.0 °F -4.1 °F -8.9 °F 53% 30.35 in 10.0 mi NNW 4.6 mph - N/A   Clear
4:55 PM 4.1 °F -3.2 °F -9.4 °F 54% 30.35 in 10.0 mi NNW 3.5 mph - N/A   Clear
5:15 PM 3.2 °F - -9.4 °F 56% 30.36 in 10.0 mi Calm Calm - N/A   Clear
5:35 PM 0.7 °F - -10.1 °F 60% 30.35 in 10.0 mi Calm Calm - N/A   Clear
5:55 PM -1.8 °F -12.0 °F -10.3 °F 67% 30.37 in 10.0 mi West 4.6 mph - N/A   Clear
6:15 PM -2.0 °F - -10.7 °F 67% 30.37 in 10.0 mi Calm Calm - N/A   Clear
6:35 PM -1.5 °F -9.5 °F -8.7 °F 71% 30.37 in 10.0 mi West 3.5 mph - N/A   Clear
6:55 PM -5.8 °F - -12.8 °F 72% 30.37 in 10.0 mi Calm Calm - N/A   Clear
7:15 PM -6.9 °F - -12.8 °F 75% 30.37 in 10.0 mi Calm Calm - N/A   Clear
7:35 PM -7.2 °F - -13.0 °F 76% 30.37 in 10.0 mi Calm Calm - N/A   Clear
7:55 PM -8.1 °F - -13.4 °F 78% 30.37 in 10.0 mi Calm Calm - N/A   Clear
8:15 PM -10.3 °F - -14.4 °F 82% 30.37 in 10.0 mi Calm Calm - N/A   Clear
8:35 PM -9.4 °F - -14.3 °F 79% 30.37 in 10.0 mi Calm Calm - N/A   Clear
8:55 PM -11.9 °F - -15.7 °F 83% 30.37 in 10.0 mi Calm Calm - N/A   Clear
9:15 PM -10.8 °F - -15.3 °F 80% 30.37 in 10.0 mi Calm Calm - N/A   Clear
9:35 PM -13.5 °F - -18.4 °F 79% 30.37 in 10.0 mi Calm Calm - N/A   Clear
9:55 PM -13.7 °F - -18.2 °F 80% 30.38 in 10.0 mi Calm Calm - N/A   Clear
10:15 PM -14.3 °F - -18.8 °F 80% 30.38 in 10.0 mi Calm Calm - N/A   Clear
10:35 PM -16.1 °F - -20.9 °F 79% 30.37 in 10.0 mi Calm Calm - N/A   Clear
10:55 PM -17.3 °F -27.6 °F -22.2 °F 79% 30.37 in 10.0 mi East 3.5 mph - N/A   Clear
11:15 PM -17.0 °F - -22.7 °F 75% 30.35 in 10.0 mi Calm Calm - N/A   Clear
11:35 PM -16.6 °F - -21.3 °F 79% 30.35 in 10.0 mi Calm Calm - N/A   Clear
11:55 PM -17.3 °F - -22.0 °F 79% 30.35 in 10.0 mi Calm Calm - N/A   Clear